Precipitable_Water
1.07 1.12 1.12 1.13 1.15 1.18 1.22 1.27 1.28 1.35 1.34 1.34 1.36 1.35 1.35 1.33 1.29 1.25 1.33 1.37 1.33 1.31 1.32 1.32 1.27 1.28 1.32 1.31 1.29 1.34 1.34 1.37 1.39 1.43 1.43 1.40 1.42 1.44 1.45 1.48 1.44 1.42 1.44 1.45 1.47 1.51 1.51 1.54 1.56 1.57 1.61 1.55 1.47 1.40 1.41 1.42 1.46 1.44 1.41 1.38 1.31 1.25 1.28 1.34 1.35 1.34 1.26 1.22 1.28 1.26 1.23 1.28 1.27 1.31 1.33 1.34 1.32 1.31 1.31 1.27 1.33 1.31 1.31 1.31 1.25
1.04 1.05 1.09 1.10 1.11 1.14 1.18 1.21 1.26 1.19 1.22 1.29 1.29 1.28 1.28 1.28 1.25 1.23 1.26 1.30 1.32 1.32 1.36 1.38 1.34 1.30 1.26 1.25 1.26 1.28 1.29 1.28 1.28 1.35 1.37 1.36 1.37 1.41 1.46 1.46 1.44 1.43 1.41 1.42 1.43 1.43 1.43 1.47 1.52 1.55 1.57 1.60 1.55 1.53 1.46 1.46 1.47 1.45 1.41 1.34 1.35 1.28 1.25 1.32 1.33 1.30 1.19 1.13 1.10 1.12 1.13 1.19 1.23 1.28 1.31 1.33 1.32 1.32 1.33 1.30 1.32 1.28 1.27 1.29 1.24
0.90 0.96 1.04 1.06 1.08 1.10 1.13 1.17 1.22 1.23 1.22 1.23 1.29 1.24 1.21 1.24 1.28 1.30 1.31 1.30 1.32 1.34 1.34 1.30 1.32 1.31 1.25 1.22 1.21 1.22 1.34 1.36 1.34 1.37 1.38 1.33 1.33 1.34 1.41 1.46 1.46 1.41 1.39 1.40 1.40 1.41 1.45 1.48 1.50 1.56 1.52 1.57 1.54 1.50 1.55 1.49 1.46 1.41 1.43 1.34 1.29 1.33 1.33 1.38 1.34 1.31 1.17 1.22 1.21 1.05 0.94 0.91 1.12 1.19 1.30 1.30 1.29 1.34 1.31 1.26 1.28 1.25 1.26 1.27 1.17
0.79 0.85 0.90 0.97 1.01 1.03 1.06 1.10 1.16 1.20 1.20 1.20 1.23 1.21 1.19 1.18 1.20 1.25 1.26 1.27 1.27 1.27 1.27 1.29 1.28 1.27 1.27 1.26 1.26 1.24 1.23 1.29 1.31 1.33 1.31 1.27 1.26 1.34 1.37 1.42 1.46 1.46 1.45 1.42 1.41 1.42 1.45 1.49 1.53 1.56 1.56 1.57 1.57 1.53 1.50 1.46 1.42 1.44 1.44 1.39 1.35 1.25 1.27 1.32 1.38 1.36 1.32 1.27 1.04 0.93 0.91 0.93 0.89 0.98 1.05 1.18 1.27 1.29 1.27 1.25 1.25 1.23 1.27 1.23 1.13
0.75 0.79 0.84 0.88 0.91 0.94 0.97 1.03 1.11 1.12 1.16 1.18 1.20 1.19 1.18 1.17 1.20 1.21 1.21 1.21 1.21 1.22 1.24 1.25 1.25 1.23 1.24 1.24 1.27 1.24 1.26 1.24 1.21 1.21 1.26 1.23 1.21 1.22 1.25 1.33 1.36 1.39 1.43 1.46 1.44 1.42 1.43 1.46 1.49 1.53 1.52 1.52 1.53 1.53 1.52 1.50 1.51 1.49 1.45 1.39 1.37 1.30 1.25 1.29 1.35 1.38 1.36 1.36 1.21 1.01 0.90 0.87 0.91 1.02 1.07 1.06 1.19 1.19 1.22 1.24 1.24 1.23 1.24 1.16 1.09
0.76 0.77 0.80 0.85 0.89 0.93 0.96 1.00 1.05 1.09 1.10 1.15 1.20 1.24 1.23 1.19 1.20 1.22 1.23 1.22 1.21 1.22 1.24 1.24 1.22 1.20 1.18 1.14 1.10 1.11 1.09 1.13 1.13 1.17 1.22 1.23 1.21 1.23 1.26 1.30 1.32 1.36 1.43 1.47 1.46 1.42 1.40 1.45 1.47 1.47 1.48 1.49 1.49 1.48 1.50 1.54 1.56 1.49 1.49 1.43 1.39 1.38 1.35 1.32 1.25 1.34 1.34 1.35 1.32 1.24 1.16 0.90 0.95 1.03 1.02 0.88 1.15 1.22 1.21 1.21 1.22 1.22 1.24 1.15 1.10
0.76 0.79 0.81 0.82 0.85 0.88 0.92 0.95 1.01 1.04 1.08 1.14 1.16 1.18 1.20 1.21 1.21 1.22 1.22 1.21 1.23 1.23 1.26 1.25 1.24 1.25 1.23 1.20 1.20 1.19 1.15 1.19 1.27 1.32 1.33 1.35 1.34 1.29 1.28 1.31 1.33 1.33 1.37 1.47 1.47 1.44 1.42 1.45 1.47 1.44 1.46 1.50 1.51 1.49 1.46 1.50 1.50 1.51 1.52 1.51 1.46 1.49 1.40 1.30 1.23 1.23 1.30 1.30 1.26 1.27 1.27 1.16 1.13 1.11 0.98 1.05 0.91 1.10 1.18 1.15 1.16 1.20 1.21 1.18 1.13
0.73 0.75 0.77 0.80 0.82 0.84 0.85 0.91 0.97 1.02 1.07 1.10 1.11 1.14 1.15 1.17 1.17 1.18 1.20 1.21 1.24 1.26 1.25 1.26 1.20 1.22 1.24 1.27 1.29 1.26 1.25 1.22 1.28 1.31 1.38 1.38 1.34 1.32 1.30 1.29 1.32 1.34 1.36 1.42 1.48 1.48 1.44 1.42 1.42 1.44 1.44 1.49 1.52 1.50 1.46 1.50 1.55 1.58 1.60 1.57 1.53 1.43 1.46 1.31 1.27 1.28 1.18 1.15 1.19 1.20 1.21 1.22 1.15 1.18 1.17 1.03 0.92 0.90 1.02 1.16 1.18 1.18 1.17 1.17 1.19
0.71 0.71 0.73 0.75 0.78 0.80 0.84 0.87 0.94 0.99 1.02 1.05 1.08 1.11 1.14 1.16 1.16 1.17 1.16 1.19 1.21 1.23 1.23 1.27 1.27 1.25 1.25 1.27 1.24 1.29 1.27 1.27 1.29 1.30 1.28 1.32 1.30 1.32 1.30 1.30 1.32 1.33 1.33 1.35 1.42 1.51 1.47 1.45 1.42 1.43 1.43 1.44 1.47 1.51 1.52 1.53 1.53 1.53 1.54 1.57 1.48 1.42 1.43 1.40 1.36 1.27 1.23 1.15 1.14 1.17 1.18 1.12 1.11 1.14 1.16 1.16 1.06 0.97 0.97 0.98 0.98 1.12 1.14 1.16 1.19
0.71 0.71 0.71 0.72 0.75 0.77 0.80 0.85 0.87 0.92 0.97 1.02 1.05 1.09 1.12 1.14 1.14 1.14 1.11 1.15 1.19 1.20 1.21 1.21 1.24 1.27 1.23 1.20 1.22 1.27 1.30 1.31 1.31 1.27 1.28 1.31 1.29 1.30 1.29 1.30 1.30 1.31 1.32 1.31 1.35 1.47 1.53 1.44 1.47 1.42 1.43 1.43 1.42 1.45 1.53 1.53 1.55 1.56 1.53 1.55 1.55 1.44 1.46 1.43 1.38 1.32 1.26 1.25 1.23 1.19 1.11 1.10 1.07 1.07 1.09 1.07 1.06 1.06 0.97 0.92 0.98 0.99 0.93 1.05 1.17
0.69 0.71 0.73 0.75 0.78 0.78 0.80 0.80 0.84 0.88 0.91 0.95 0.99 1.03 1.06 1.08 1.09 1.09 1.11 1.14 1.18 1.19 1.20 1.17 1.17 1.19 1.17 1.19 1.20 1.19 1.19 1.17 1.19 1.22 1.26 1.26 1.25 1.25 1.23 1.26 1.29 1.30 1.35 1.36 1.34 1.41 1.51 1.45 1.48 1.40 1.41 1.43 1.45 1.47 1.50 1.54 1.55 1.54 1.55 1.55 1.53 1.50 1.50 1.37 1.36 1.39 1.37 1.26 1.15 1.15 1.13 1.10 1.02 1.00 1.03 1.04 1.02 0.94 0.91 0.93 0.98 1.00 1.00 0.99 1.09
0.69 0.70 0.71 0.74 0.75 0.78 0.79 0.79 0.82 0.84 0.87 0.88 0.92 0.96 0.99 1.02 1.04 1.03 1.06 1.09 1.14 1.17 1.18 1.18 1.18 1.16 1.13 1.12 1.10 1.11 1.11 1.10 1.11 1.14 1.19 1.19 1.21 1.20 1.21 1.23 1.27 1.31 1.34 1.34 1.33 1.36 1.41 1.43 1.47 1.42 1.40 1.41 1.44 1.51 1.54 1.54 1.57 1.57 1.55 1.56 1.53 1.50 1.47 1.44 1.38 1.33 1.28 1.23 1.25 1.21 1.17 1.17 1.14 1.12 1.11 1.11 1.04 1.01 0.97 0.96 0.95 0.99 1.02 1.06 1.13
0.66 0.68 0.69 0.70 0.71 0.73 0.74 0.75 0.77 0.77 0.78 0.82 0.84 0.88 0.91 0.94 0.96 0.97 0.99 1.06 1.10 1.13 1.13 1.14 1.14 1.16 1.16 1.14 1.12 1.12 1.10 1.10 1.12 1.16 1.21 1.20 1.20 1.18 1.18 1.18 1.22 1.24 1.31 1.31 1.32 1.31 1.32 1.37 1.41 1.39 1.39 1.44 1.46 1.50 1.52 1.55 1.56 1.55 1.54 1.54 1.49 1.45 1.41 1.39 1.35 1.33 1.32 1.20 1.17 1.23 1.19 1.16 1.13 1.18 1.17 1.11 1.11 1.11 1.04 0.97 0.98 1.03 0.96 0.99 1.11
0.68 0.70 0.70 0.71 0.71 0.72 0.72 0.72 0.73 0.74 0.76 0.78 0.81 0.83 0.85 0.85 0.88 0.89 0.92 1.00 1.04 1.07 1.10 1.10 1.10 1.12 1.15 1.16 1.17 1.16 1.14 1.15 1.15 1.16 1.20 1.23 1.24 1.22 1.21 1.20 1.20 1.25 1.31 1.31 1.32 1.31 1.35 1.38 1.41 1.42 1.43 1.45 1.48 1.51 1.54 1.57 1.57 1.53 1.51 1.51 1.52 1.46 1.44 1.42 1.42 1.39 1.39 1.29 1.26 1.24 1.20 1.21 1.18 1.22 1.27 1.16 1.12 1.08 1.02 0.95 0.96 0.99 1.02 0.98 1.10
0.66 0.67 0.68 0.68 0.69 0.70 0.71 0.72 0.72 0.73 0.75 0.77 0.78 0.80 0.82 0.82 0.83 0.84 0.87 0.92 0.95 0.96 0.99 1.02 1.05 1.09 1.13 1.17 1.19 1.21 1.19 1.19 1.20 1.21 1.21 1.21 1.23 1.20 1.19 1.20 1.19 1.22 1.28 1.36 1.38 1.35 1.36 1.38 1.40 1.42 1.42 1.42 1.46 1.50 1.54 1.56 1.56 1.57 1.53 1.52 1.51 1.48 1.46 1.47 1.48 1.47 1.38 1.27 1.27 1.29 1.24 1.20 1.23 1.23 1.20 1.19 1.20 1.14 1.09 1.01 0.99 0.92 0.92 0.99 0.98
0.66 0.66 0.66 0.67 0.68 0.69 0.70 0.70 0.70 0.72 0.74 0.76 0.77 0.79 0.79 0.80 0.82 0.84 0.85 0.88 0.90 0.93 0.95 0.96 1.00 1.03 1.07 1.10 1.13 1.18 1.21 1.22 1.22 1.23 1.24 1.22 1.17 1.14 1.13 1.16 1.20 1.24 1.27 1.33 1.38 1.39 1.38 1.39 1.41 1.41 1.44 1.44 1.46 1.51 1.54 1.55 1.54 1.53 1.51 1.45 1.42 1.48 1.45 1.47 1.46 1.48 1.39 1.28 1.23 1.31 1.26 1.20 1.25 1.27 1.23 1.23 1.19 1.18 1.13 1.11 1.08 1.02 0.90 0.85 0.96
0.65 0.65 0.65 0.66 0.68 0.69 0.69 0.69 0.70 0.72 0.74 0.76 0.78 0.80 0.80 0.81 0.81 0.82 0.84 0.86 0.88 0.92 0.95 0.99 1.01 1.02 1.05 1.09 1.12 1.14 1.15 1.16 1.18 1.18 1.18 1.18 1.17 1.17 1.17 1.21 1.23 1.23 1.27 1.32 1.36 1.39 1.37 1.37 1.37 1.40 1.41 1.42 1.43 1.45 1.50 1.53 1.55 1.56 1.49 1.39 1.37 1.42 1.44 1.45 1.50 1.47 1.40 1.31 1.26 1.24 1.28 1.23 1.24 1.26 1.25 1.24 1.21 1.21 1.17 1.15 1.14 1.07 1.00 0.90 0.86
0.65 0.67 0.68 0.69 0.69 0.68 0.69 0.71 0.72 0.73 0.74 0.76 0.78 0.81 0.82 0.83 0.82 0.81 0.83 0.83 0.86 0.89 0.91 0.95 0.97 0.99 1.01 1.04 1.08 1.10 1.11 1.12 1.16 1.17 1.17 1.15 1.16 1.17 1.20 1.23 1.26 1.29 1.32 1.32 1.34 1.35 1.36 1.37 1.38 1.40 1.40 1.40 1.42 1.45 1.48 1.49 1.53 1.53 1.46 1.41 1.41 1.44 1.45 1.46 1.50 1.45 1.41 1.33 1.30 1.27 1.32 1.28 1.29 1.27 1.24 1.23 1.23 1.22 1.20 1.17 1.17 1.14 1.10 0.96 0.94
0.65 0.66 0.68 0.68 0.68 0.68 0.69 0.70 0.72 0.74 0.76 0.77 0.79 0.80 0.81 0.82 0.82 0.83 0.82 0.83 0.84 0.86 0.87 0.89 0.92 0.94 0.96 0.97 0.99 1.03 1.08 1.11 1.15 1.19 1.19 1.15 1.15 1.19 1.21 1.26 1.33 1.34 1.33 1.32 1.32 1.32 1.33 1.35 1.38 1.40 1.40 1.37 1.40 1.42 1.47 1.49 1.51 1.50 1.47 1.44 1.47 1.50 1.47 1.46 1.46 1.47 1.42 1.34 1.27 1.25 1.33 1.27 1.33 1.30 1.29 1.27 1.26 1.25 1.22 1.22 1.20 1.17 1.13 1.08 1.03
0.65 0.66 0.66 0.66 0.67 0.68 0.68 0.69 0.70 0.72 0.74 0.76 0.77 0.78 0.78 0.80 0.81 0.82 0.84 0.84 0.85 0.84 0.84 0.83 0.85 0.86 0.88 0.92 0.95 0.98 1.03 1.07 1.11 1.14 1.17 1.18 1.20 1.22 1.23 1.24 1.31 1.36 1.34 1.34 1.33 1.33 1.36 1.35 1.37 1.38 1.37 1.37 1.37 1.42 1.44 1.46 1.45 1.45 1.45 1.45 1.50 1.50 1.46 1.44 1.44 1.46 1.41 1.36 1.29 1.25 1.28 1.30 1.29 1.28 1.28 1.28 1.26 1.25 1.25 1.21 1.20 1.17 1.16 1.15 1.12
0.65 0.65 0.66 0.66 0.66 0.66 0.68 0.69 0.70 0.73 0.74 0.75 0.75 0.75 0.77 0.79 0.79 0.80 0.79 0.79 0.79 0.80 0.79 0.78 0.79 0.80 0.80 0.80 0.85 0.91 0.97 1.03 1.08 1.11 1.13 1.17 1.22 1.24 1.25 1.26 1.29 1.31 1.33 1.33 1.33 1.33 1.35 1.36 1.35 1.38 1.38 1.36 1.38 1.40 1.46 1.47 1.43 1.39 1.40 1.42 1.47 1.48 1.43 1.43 1.46 1.40 1.41 1.36 1.33 1.31 1.32 1.29 1.31 1.31 1.30 1.30 1.26 1.24 1.23 1.22 1.21 1.19 1.16 1.18 1.13
0.66 0.66 0.66 0.65 0.65 0.65 0.66 0.68 0.69 0.70 0.71 0.71 0.73 0.73 0.73 0.74 0.75 0.75 0.76 0.75 0.74 0.74 0.75 0.75 0.77 0.77 0.76 0.77 0.79 0.83 0.89 0.96 1.01 1.07 1.09 1.12 1.16 1.22 1.25 1.25 1.24 1.28 1.32 1.31 1.31 1.32 1.32 1.33 1.34 1.36 1.39 1.40 1.41 1.44 1.43 1.45 1.41 1.37 1.37 1.42 1.44 1.45 1.43 1.43 1.44 1.39 1.37 1.34 1.34 1.33 1.32 1.33 1.35 1.32 1.31 1.28 1.27 1.23 1.22 1.20 1.18 1.18 1.15 1.16 1.18
0.66 0.66 0.65 0.65 0.64 0.64 0.64 0.65 0.66 0.67 0.69 0.70 0.71 0.71 0.72 0.72 0.72 0.73 0.72 0.73 0.74 0.74 0.75 0.75 0.75 0.75 0.75 0.76 0.76 0.76 0.79 0.83 0.89 0.97 1.03 1.08 1.13 1.18 1.24 1.24 1.23 1.26 1.31 1.32 1.31 1.31 1.31 1.30 1.30 1.34 1.37 1.39 1.37 1.38 1.42 1.42 1.41 1.40 1.38 1.43 1.46 1.45 1.42 1.42 1.41 1.39 1.37 1.36 1.33 1.33 1.33 1.32 1.35 1.28 1.31 1.28 1.26 1.30 1.27 1.21 1.18 1.19 1.16 1.16 1.17
0.65 0.65 0.64 0.63 0.63 0.64 0.64 0.64 0.64 0.65 0.67 0.68 0.69 0.70 0.71 0.71 0.71 0.71 0.70 0.71 0.73 0.73 0.73 0.73 0.73 0.73 0.74 0.74 0.73 0.75 0.75 0.76 0.78 0.83 0.91 1.00 1.07 1.12 1.19 1.23 1.27 1.28 1.27 1.33 1.36 1.34 1.32 1.29 1.27 1.31 1.36 1.37 1.36 1.35 1.36 1.38 1.40 1.38 1.35 1.38 1.41 1.43 1.43 1.43 1.41 1.38 1.36 1.34 1.31 1.30 1.31 1.34 1.33 1.26 1.25 1.26 1.27 1.30 1.25 1.22 1.19 1.19 1.18 1.16 1.17
0.62 0.61 0.61 0.61 0.61 0.60 0.61 0.62 0.62 0.64 0.65 0.66 0.67 0.68 0.68 0.70 0.70 0.69 0.70 0.71 0.71 0.72 0.71 0.71 0.71 0.70 0.71 0.71 0.71 0.71 0.71 0.72 0.74 0.76 0.79 0.88 0.97 1.05 1.13 1.18 1.24 1.26 1.28 1.30 1.33 1.33 1.32 1.30 1.27 1.30 1.33 1.36 1.36 1.34 1.31 1.34 1.40 1.43 1.43 1.42 1.40 1.38 1.39 1.41 1.40 1.39 1.37 1.34 1.31 1.30 1.33 1.33 1.29 1.24 1.27 1.26 1.22 1.26 1.27 1.22 1.17 1.18 1.17 1.17 1.16
0.60 0.60 0.60 0.58 0.59 0.60 0.60 0.60 0.61 0.62 0.63 0.63 0.64 0.66 0.67 0.68 0.70 0.70 0.70 0.70 0.71 0.72 0.71 0.71 0.71 0.70 0.70 0.69 0.70 0.69 0.69 0.69 0.71 0.73 0.75 0.79 0.86 0.95 1.03 1.12 1.20 1.23 1.25 1.29 1.30 1.31 1.31 1.31 1.33 1.35 1.35 1.37 1.37 1.37 1.33 1.36 1.40 1.42 1.44 1.46 1.43 1.38 1.38 1.40 1.42 1.40 1.36 1.34 1.33 1.32 1.33 1.33 1.27 1.23 1.34 1.28 1.35 1.26 1.24 1.20 1.17 1.16 1.16 1.15 1.15
0.60 0.59 0.59 0.59 0.58 0.58 0.59 0.60 0.60 0.60 0.60 0.60 0.60 0.61 0.63 0.65 0.67 0.69 0.70 0.70 0.71 0.71 0.71 0.71 0.71 0.71 0.70 0.70 0.70 0.70 0.69 0.68 0.69 0.71 0.74 0.76 0.78 0.84 0.93 1.01 1.12 1.19 1.23 1.24 1.26 1.27 1.31 1.32 1.35 1.36 1.37 1.37 1.35 1.36 1.33 1.36 1.38 1.39 1.40 1.41 1.40 1.40 1.40 1.43 1.43 1.43 1.38 1.34 1.34 1.35 1.35 1.33 1.32 1.35 1.30 1.33 1.18 1.23 1.22 1.18 1.18 1.18 1.18 1.14 1.17
0.61 0.60 0.59 0.57 0.57 0.58 0.58 0.59 0.59 0.59 0.59 0.59 0.59 0.59 0.59 0.60 0.61 0.64 0.67 0.69 0.71 0.71 0.70 0.70 0.70 0.70 0.70 0.71 0.71 0.72 0.71 0.70 0.69 0.71 0.72 0.74 0.76 0.78 0.85 0.96 1.04 1.10 1.17 1.21 1.23 1.24 1.28 1.31 1.33 1.33 1.35 1.38 1.36 1.35 1.35 1.34 1.34 1.36 1.36 1.39 1.40 1.39 1.39 1.40 1.41 1.42 1.41 1.35 1.30 1.32 1.34 1.32 1.33 1.32 1.28 1.23 1.25 1.20 1.18 1.15 1.19 1.21 1.20 1.16 1.15
0.60 0.59 0.58 0.57 0.56 0.57 0.58 0.59 0.59 0.59 0.59 0.59 0.59 0.60 0.59 0.59 0.59 0.61 0.64 0.67 0.70 0.70 0.69 0.69 0.69 0.69 0.70 0.71 0.72 0.73 0.72 0.71 0.70 0.70 0.71 0.73 0.74 0.76 0.81 0.89 0.99 1.05 1.12 1.17 1.22 1.24 1.25 1.27 1.31 1.31 1.34 1.37 1.36 1.35 1.35 1.33 1.29 1.32 1.36 1.38 1.40 1.40 1.37 1.35 1.36 1.39 1.39 1.32 1.33 1.42 1.41 1.34 1.34 1.35 1.31 1.30 1.30 1.26 1.19 1.14 1.18 1.20 1.19 1.17 1.14
0.58 0.57 0.57 0.57 0.57 0.58 0.59 0.60 0.61 0.60 0.60 0.60 0.61 0.61 0.60 0.58 0.58 0.59 0.61 0.65 0.67 0.68 0.68 0.68 0.68 0.69 0.70 0.72 0.73 0.73 0.72 0.71 0.69 0.68 0.70 0.72 0.73 0.76 0.78 0.81 0.90 1.01 1.08 1.14 1.17 1.22 1.24 1.25 1.26 1.29 1.36 1.36 1.36 1.37 1.35 1.33 1.30 1.27 1.29 1.36 1.40 1.40 1.38 1.35 1.33 1.36 1.35 1.34 1.36 1.36 1.34 1.35 1.33 1.31 1.31 1.30 1.28 1.26 1.24 1.21 1.20 1.19 1.17 1.16 1.14
0.57 0.56 0.57 0.58 0.59 0.60 0.61 0.62 0.62 0.62 0.62 0.62 0.62 0.62 0.61 0.60 0.59 0.59 0.60 0.64 0.66 0.66 0.67 0.66 0.67 0.69 0.71 0.72 0.72 0.72 0.72 0.70 0.69 0.68 0.69 0.71 0.72 0.74 0.77 0.79 0.83 0.92 1.01 1.10 1.15 1.17 1.21 1.24 1.24 1.27 1.29 1.26 1.40 1.40 1.35 1.35 1.32 1.28 1.30 1.35 1.35 1.34 1.32 1.29 1.29 1.29 1.32 1.32 1.34 1.41 1.40 1.36 1.32 1.32 1.31 1.30 1.28 1.26 1.24 1.24 1.25 1.25 1.27 1.22 1.15
0.56 0.57 0.58 0.59 0.59 0.60 0.61 0.62 0.63 0.63 0.63 0.63 0.62 0.62 0.62 0.60 0.59 0.57 0.59 0.63 0.64 0.64 0.65 0.66 0.66 0.68 0.69 0.70 0.70 0.71 0.70 0.69 0.68 0.67 0.67 0.69 0.71 0.72 0.74 0.77 0.80 0.85 0.95 1.04 1.11 1.16 1.21 1.24 1.26 1.27 1.29 1.33 1.36 1.35 1.36 1.35 1.33 1.31 1.32 1.34 1.31 1.27 1.30 1.33 1.33 1.31 1.32 1.31 1.33 1.35 1.36 1.36 1.32 1.29 1.28 1.25 1.24 1.26 1.26 1.25 1.24 1.24 1.25 1.26 1.19
0.57 0.58 0.59 0.60 0.60 0.62 0.63 0.64 0.64 0.64 0.64 0.64 0.63 0.63 0.62 0.61 0.60 0.59 0.59 0.60 0.62 0.62 0.64 0.65 0.66 0.67 0.68 0.69 0.70 0.69 0.69 0.69 0.69 0.68 0.67 0.67 0.68 0.70 0.72 0.75 0.77 0.83 0.90 0.96 1.02 1.08 1.12 1.18 1.22 1.23 1.30 1.33 1.36 1.40 1.38 1.34 1.31 1.33 1.35 1.35 1.37 1.31 1.28 1.32 1.32 1.28 1.33 1.25 1.21 1.24 1.20 1.25 1.28 1.27 1.26 1.26 1.24 1.23 1.23 1.23 1.22 1.22 1.21 1.21 1.20
0.59 0.60 0.60 0.61 0.62 0.63 0.64 0.64 0.64 0.65 0.64 0.64 0.64 0.64 0.64 0.63 0.62 0.61 0.59 0.59 0.60 0.61 0.62 0.64 0.65 0.65 0.67 0.69 0.69 0.68 0.67 0.68 0.69 0.69 0.68 0.67 0.66 0.66 0.70 0.74 0.77 0.81 0.84 0.90 0.97 1.02 1.08 1.11 1.15 1.17 1.22 1.32 1.34 1.32 1.36 1.35 1.36 1.36 1.34 1.35 1.38 1.34 1.26 1.29 1.32 1.30 1.27 1.29 1.20 1.20 1.24 1.20 1.22 1.23 1.23 1.22 1.21 1.19 1.19 1.18 1.17 1.17 1.17 1.16 1.18
0.60 0.61 0.62 0.62 0.62 0.63 0.64 0.64 0.64 0.64 0.64 0.64 0.64 0.65 0.64 0.63 0.62 0.61 0.60 0.59 0.59 0.59 0.60 0.63 0.63 0.64 0.66 0.67 0.67 0.67 0.66 0.67 0.68 0.69 0.69 0.67 0.66 0.66 0.67 0.71 0.73 0.76 0.80 0.84 0.90 0.94 1.01 1.06 1.10 1.15 1.19 1.21 1.24 1.26 1.25 1.27 1.30 1.33 1.33 1.31 1.34 1.34 1.30 1.23 1.28 1.29 1.24 1.26 1.21 1.22 1.15 1.17 1.18 1.16 1.16 1.16 1.16 1.15 1.14 1.14 1.15 1.15 1.14 1.14 1.14
0.63 0.63 0.63 0.63 0.63 0.63 0.63 0.63 0.64 0.64 0.64 0.64 0.64 0.65 0.64 0.63 0.63 0.61 0.60 0.59 0.58 0.58 0.58 0.61 0.61 0.62 0.63 0.65 0.65 0.66 0.66 0.66 0.67 0.68 0.68 0.67 0.67 0.66 0.65 0.68 0.71 0.74 0.78 0.82 0.86 0.91 0.95 0.99 1.04 1.09 1.12 1.14 1.19 1.21 1.19 1.19 1.23 1.27 1.28 1.25 1.32 1.34 1.29 1.22 1.20 1.14 1.14 1.18 1.23 1.19 1.18 1.19 1.17 1.17 1.17 1.19 1.20 1.20 1.17 1.15 1.14 1.15 1.12 1.09 1.08
0.65 0.64 0.63 0.65 0.65 0.63 0.62 0.62 0.62 0.63 0.64 0.64 0.64 0.64 0.63 0.62 0.61 0.61 0.60 0.58 0.57 0.56 0.57 0.58 0.60 0.61 0.62 0.63 0.64 0.64 0.65 0.66 0.66 0.66 0.66 0.67 0.67 0.67 0.66 0.68 0.67 0.70 0.72 0.76 0.80 0.85 0.91 0.94 0.96 1.01 1.05 1.09 1.13 1.15 1.15 1.17 1.20 1.24 1.22 1.22 1.26 1.30 1.26 1.21 1.16 1.10 1.11 1.16 1.21 1.21 1.19 1.17 1.19 1.19 1.18 1.17 1.20 1.20 1.17 1.14 1.11 1.07 1.07 1.08 1.06
0.64 0.62 0.63 0.63 0.63 0.60 0.58 0.58 0.58 0.59 0.61 0.62 0.62 0.61 0.60 0.59 0.59 0.59 0.58 0.57 0.56 0.55 0.56 0.57 0.58 0.60 0.60 0.61 0.62 0.63 0.64 0.65 0.65 0.65 0.66 0.68 0.68 0.69 0.68 0.69 0.66 0.66 0.68 0.72 0.76 0.80 0.85 0.92 0.96 0.97 0.98 1.04 1.08 1.12 1.13 1.15 1.17 1.20 1.20 1.20 1.24 1.23 1.19 1.20 1.15 1.11 1.09 1.11 1.11 1.13 1.15 1.16 1.17 1.22 1.23 1.18 1.20 1.20 1.16 1.12 1.07 1.05 1.04 1.02 1.03
0.62 0.62 0.60 0.60 0.60 0.58 0.56 0.55 0.55 0.55 0.57 0.57 0.56 0.55 0.54 0.54 0.54 0.54 0.55 0.54 0.54 0.54 0.54 0.55 0.56 0.57 0.59 0.59 0.60 0.60 0.61 0.62 0.62 0.63 0.65 0.66 0.68 0.68 0.70 0.71 0.69 0.68 0.67 0.70 0.73 0.74 0.78 0.83 0.89 0.94 0.97 0.98 1.04 1.09 1.14 1.15 1.15 1.17 1.20 1.22 1.22 1.19 1.17 1.16 1.14 1.11 1.08 1.07 1.07 1.09 1.10 1.12 1.12 1.17 1.20 1.21 1.21 1.20 1.14 1.10 1.08 1.05 1.01 0.98 0.99
0.58 0.58 0.58 0.57 0.56 0.54 0.52 0.51 0.51 0.51 0.52 0.51 0.50 0.49 0.48 0.47 0.48 0.49 0.49 0.49 0.51 0.51 0.53 0.53 0.54 0.55 0.56 0.57 0.57 0.58 0.58 0.58 0.59 0.61 0.63 0.64 0.67 0.68 0.69 0.71 0.71 0.71 0.69 0.69 0.70 0.71 0.72 0.77 0.83 0.85 0.87 0.92 0.98 1.03 1.08 1.10 1.13 1.15 1.18 1.20 1.20 1.14 1.15 1.15 1.14 1.09 1.02 1.02 1.04 1.04 1.06 1.07 1.11 1.15 1.20 1.22 1.21 1.19 1.15 1.13 1.09 1.02 0.97 0.92 0.97
0.55 0.53 0.55 0.53 0.52 0.50 0.49 0.47 0.47 0.48 0.49 0.49 0.48 0.46 0.45 0.44 0.45 0.45 0.45 0.48 0.50 0.51 0.50 0.50 0.51 0.51 0.52 0.53 0.54 0.55 0.56 0.57 0.58 0.58 0.60 0.61 0.64 0.64 0.66 0.67 0.69 0.70 0.71 0.70 0.70 0.70 0.70 0.72 0.76 0.82 0.84 0.88 0.92 0.95 1.01 1.05 1.07 1.11 1.14 1.17 1.16 1.12 1.12 1.11 1.08 1.07 1.04 0.99 1.01 1.01 1.03 1.09 1.13 1.13 1.18 1.18 1.20 1.16 1.14 1.13 1.10 1.04 1.01 1.01 1.01
0.53 0.52 0.51 0.50 0.47 0.46 0.45 0.44 0.45 0.44 0.44 0.45 0.43 0.42 0.41 0.41 0.42 0.42 0.44 0.47 0.48 0.49 0.49 0.48 0.48 0.48 0.49 0.50 0.50 0.52 0.54 0.55 0.55 0.56 0.56 0.57 0.60 0.62 0.63 0.64 0.66 0.67 0.68 0.68 0.69 0.70 0.70 0.70 0.72 0.74 0.79 0.83 0.88 0.93 0.98 1.03 1.06 1.07 1.09 1.11 1.13 1.14 1.14 1.10 1.04 1.04 1.04 1.01 0.98 1.01 1.06 1.11 1.14 1.14 1.13 1.15 1.09 1.11 1.13 1.12 1.08 1.06 1.05 1.03 1.01
0.49 0.46 0.45 0.45 0.42 0.41 0.40 0.41 0.41 0.41 0.41 0.41 0.40 0.37 0.38 0.38 0.37 0.39 0.41 0.42 0.42 0.44 0.45 0.45 0.45 0.46 0.47 0.47 0.48 0.48 0.49 0.51 0.52 0.53 0.52 0.52 0.55 0.56 0.59 0.61 0.62 0.63 0.64 0.65 0.66 0.68 0.68 0.69 0.70 0.72 0.74 0.78 0.82 0.87 0.91 0.95 1.00 1.03 1.04 1.07 1.10 1.12 1.15 1.12 1.06 1.01 1.02 1.03 1.00 1.03 1.08 1.12 1.11 1.12 1.11 1.10 1.10 1.13 1.12 1.11 1.10 1.09 1.06 1.04 1.03
0.44 0.42 0.41 0.41 0.39 0.39 0.38 0.38 0.38 0.38 0.37 0.37 0.35 0.33 0.32 0.32 0.32 0.36 0.37 0.37 0.37 0.37 0.39 0.40 0.40 0.41 0.43 0.43 0.44 0.45 0.46 0.47 0.48 0.49 0.49 0.49 0.50 0.52 0.53 0.56 0.58 0.59 0.60 0.62 0.64 0.65 0.67 0.67 0.68 0.69 0.72 0.74 0.78 0.81 0.85 0.90 0.96 1.00 1.03 1.05 1.06 1.07 1.10 1.10 1.10 1.07 1.06 1.02 1.03 1.05 1.07 1.08 1.09 1.08 1.09 1.10 1.09 1.08 1.08 1.07 1.07 1.06 1.04 1.03 1.01
0.39 0.37 0.38 0.38 0.36 0.34 0.33 0.31 0.32 0.32 0.33 0.33 0.32 0.29 0.28 0.28 0.30 0.33 0.33 0.33 0.33 0.33 0.33 0.34 0.36 0.37 0.38 0.39 0.40 0.41 0.42 0.43 0.44 0.45 0.45 0.46 0.46 0.47 0.48 0.51 0.53 0.55 0.56 0.57 0.60 0.62 0.63 0.65 0.66 0.67 0.69 0.72 0.75 0.78 0.80 0.84 0.91 0.98 1.00 1.02 1.03 1.03 1.04 1.07 1.06 1.06 1.07 1.06 1.04 1.04 1.04 1.06 1.05 1.06 1.07 1.08 1.08 1.07 1.06 1.03 1.03 1.03 1.02 1.00 0.99
0.31 0.31 0.31 0.28 0.27 0.27 0.27 0.27 0.27 0.29 0.30 0.31 0.31 0.29 0.27 0.27 0.30 0.31 0.33 0.32 0.31 0.32 0.31 0.32 0.33 0.34 0.35 0.35 0.35 0.37 0.38 0.39 0.40 0.41 0.42 0.44 0.44 0.45 0.45 0.46 0.48 0.50 0.52 0.53 0.55 0.58 0.60 0.62 0.63 0.65 0.67 0.69 0.72 0.74 0.76 0.79 0.84 0.92 0.96 0.98 0.98 0.97 0.99 1.01 1.02 1.02 1.03 1.03 1.03 1.04 1.04 1.04 1.03 1.03 1.02 1.02 1.02 1.01 1.01 1.00 1.00 1.00 0.99 0.98 0.97
0.24 0.24 0.25 0.24 0.24 0.24 0.24 0.24 0.24 0.26 0.26 0.26 0.27 0.27 0.27 0.27 0.29 0.31 0.32 0.32 0.31 0.31 0.31 0.31 0.32 0.32 0.33 0.34 0.33 0.34 0.35 0.37 0.37 0.37 0.38 0.40 0.42 0.43 0.43 0.43 0.45 0.45 0.47 0.50 0.51 0.53 0.56 0.59 0.61 0.63 0.65 0.67 0.69 0.71 0.73 0.75 0.79 0.83 0.89 0.93 0.95 0.95 0.97 0.98 0.98 0.98 0.99 1.00 1.00 0.99 0.99 1.00 1.00 1.01 1.01 1.00 0.98 0.95 0.94 0.96 0.95 0.94 0.93 0.91 0.90
0.22 0.23 0.23 0.24 0.24 0.23 0.22 0.22 0.21 0.22 0.23 0.23 0.24 0.24 0.25 0.27 0.28 0.31 0.33 0.32 0.31 0.31 0.30 0.30 0.31 0.31 0.33 0.33 0.33 0.33 0.33 0.33 0.35 0.37 0.35 0.35 0.36 0.38 0.39 0.39 0.41 0.43 0.44 0.45 0.48 0.49 0.51 0.55 0.58 0.61 0.64 0.65 0.66 0.68 0.70 0.72 0.74 0.77 0.81 0.86 0.90 0.91 0.91 0.93 0.93 0.94 0.95 0.96 0.96 0.96 0.96 0.95 0.94 0.93 0.93 0.92 0.92 0.92 0.91 0.91 0.91 0.90 0.90 0.89 0.88
0.20 0.21 0.22 0.23 0.24 0.23 0.22 0.21 0.20 0.21 0.22 0.23 0.24 0.25 0.26 0.27 0.28 0.32 0.33 0.32 0.30 0.31 0.31 0.30 0.31 0.30 0.31 0.32 0.32 0.33 0.33 0.33 0.33 0.35 0.37 0.36 0.34 0.33 0.34 0.37 0.40 0.44 0.45 0.45 0.47 0.48 0.50 0.54 0.57 0.59 0.60 0.62 0.64 0.65 0.68 0.73 0.74 0.76 0.77 0.79 0.82 0.85 0.88 0.89 0.89 0.90 0.91 0.93 0.92 0.90 0.89 0.89 0.89 0.87 0.86 0.86 0.86 0.85 0.86 0.87 0.87 0.86 0.86 0.85 0.84
0.23 0.23 0.23 0.23 0.24 0.23 0.21 0.19 0.19 0.20 0.21 0.22 0.24 0.25 0.27 0.27 0.30 0.32 0.33 0.31 0.30 0.30 0.30 0.30 0.30 0.30 0.31 0.31 0.31 0.32 0.33 0.33 0.32 0.32 0.33 0.36 0.37 0.36 0.34 0.33 0.35 0.39 0.43 0.46 0.48 0.48 0.50 0.53 0.54 0.58 0.61 0.59 0.61 0.66 0.70 0.72 0.73 0.75 0.76 0.77 0.80 0.82 0.85 0.86 0.87 0.87 0.87 0.84 0.84 0.83 0.83 0.83 0.82 0.82 0.82 0.82 0.82 0.82 0.82 0.82 0.84 0.84 0.83 0.83 0.82
0.22 0.22 0.22 0.22 0.22 0.22 0.20 0.19 0.20 0.22 0.23 0.23 0.24 0.25 0.26 0.28 0.31 0.33 0.33 0.32 0.30 0.29 0.29 0.29 0.30 0.31 0.31 0.32 0.32 0.32 0.32 0.32 0.32 0.32 0.32 0.32 0.34 0.37 0.37 0.35 0.34 0.35 0.37 0.41 0.45 0.48 0.50 0.51 0.52 0.52 0.58 0.61 0.63 0.66 0.69 0.71 0.72 0.73 0.74 0.75 0.76 0.78 0.80 0.81 0.83 0.82 0.80 0.79 0.78 0.77 0.78 0.78 0.78 0.79 0.78 0.78 0.78 0.78 0.78 0.78 0.78 0.79 0.79 0.79 0.78
Wind_Speed
8 8 8 7 7 7 7 7 7 7 8 8 8 9 9 10 10 10 10 10 11 11 12 12 13 14 15 15 16 17 17 17 18 18 18 18 18 18 18 18 18 17 17 17 17 17 18 19 19 19 19 18 18 18 17 18 18 18 18 18 18 18 17 16 16 15 14 13 12 12 12 12 11 11 11 10 10 9 9 8 8 8 7 6 6
8 8 8 7 7 6 7 7 7 7 7 8 8 9 9 10 10 10 10 11 11 12 12 13 13 14 14 15 16 17 18 18 18 18 19 19 19 20 19 19 18 18 18 18 18 18 18 19 20 20 20 19 19 19 18 19 19 19 18 18 19 18 18 17 17 15 14 13 13 12 12 12 12 12 12 11 10 9 9 9 8 8 7 7 6
8 7 7 7 6 6 6 6 7 7 7 8 8 9 9 10 10 10 10 11 11 12 12 13 13 14 15 16 16 17 17 18 18 19 19 20 20 20 20 20 19 19 18 18 19 19 19 19 20 20 20 21 20 19 19 20 20 20 19 20 19 19 18 18 18 17 15 14 13 13 13 13 13 13 13 12 11 10 9 9 9 8 8 7 7
8 7 7 7 6 5 5 5 6 6 7 7 8 9 9 10 10 10 10 11 11 12 13 13 14 15 16 16 17 17 18 18 18 19 20 20 20 20 20 20 20 20 20 19 19 20 20 20 20 20 21 22 22 21 21 21 21 20 21 21 21 20 19 18 18 18 17 15 14 13 13 13 13 14 14 13 12 11 11 10 9 9 8 8 7
8 8 8 7 7 6 6 6 6 7 7 8 8 9 10 10 10 10 10 11 11 12 13 14 14 15 16 17 17 18 18 19 19 19 20 19 20 20 21 21 21 21 21 21 21 21 21 21 21 21 22 23 24 24 23 23 22 22 22 22 22 21 20 19 19 18 18 17 15 13 13 13 14 14 14 13 13 12 11 11 10 9 9 8 8
8 8 8 8 8 7 7 7 7 8 8 8 9 10 10 10 11 11 11 11 12 12 13 14 15 16 17 17 18 18 19 20 20 20 20 19 20 20 21 22 22 22 22 22 23 23 22 22 22 22 23 23 24 25 26 25 24 23 22 23 23 23 21 20 19 19 18 18 17 15 13 13 14 14 13 13 13 13 12 12 11 10 10 9 9
9 9 9 9 9 9 8 8 9 9 9 10 10 10 11 11 11 11 11 12 12 13 14 15 16 17 18 19 19 19 19 20 20 20 20 20 21 21 22 22 23 23 23 23 24 24 23 23 23 23 23 23 24 25 26 26 25 24 23 23 24 24 23 21 20 20 19 18 18 17 15 14 14 14 14 12 13 13 13 13 12 11 11 10 10
10 10 10 9 9 9 9 9 10 10 11 11 12 12 12 12 12 12 12 12 13 13 15 16 17 18 19 19 20 20 20 20 20 20 20 21 22 22 22 22 23 24 24 24 24 25 24 24 24 23 23 23 23 24 26 27 26 25 25 24 24 24 24 23 21 20 20 19 19 18 17 16 15 15 15 14 13 13 13 13 13 12 12 11 11
10 10 10 10 10 10 10 10 10 11 12 13 13 14 14 14 14 13 13 14 14 15 16 17 18 19 20 20 20 20 20 20 20 20 20 21 22 22 22 23 23 24 25 25 25 25 25 25 24 24 23 24 24 23 25 27 27 27 26 25 25 25 25 24 22 21 21 19 19 19 18 18 16 16 16 15 14 13 13 14 13 13 12 12 11
10 10 9 9 10 10 10 10 11 11 12 13 14 14 14 14 15 14 15 15 16 16 17 18 19 20 20 20 21 21 21 21 21 21 22 22 22 22 22 23 23 24 25 25 25 25 25 24 24 24 24 24 24 24 24 26 28 27 27 26 26 25 25 25 23 22 21 20 19 19 19 19 18 17 17 16 16 14 14 14 14 14 13 12 12
10 9 9 9 10 10 10 11 11 11 12 13 14 14 15 15 15 15 16 16 17 17 18 18 19 20 21 21 21 22 22 23 23 23 23 23 24 24 24 24 24 24 24 25 25 26 26 25 24 24 24 24 24 24 24 25 28 28 27 27 27 26 26 25 24 22 21 20 20 20 20 20 19 18 17 17 17 15 14 14 15 15 14 13 13
10 10 10 10 10 11 11 11 12 12 13 13 13 14 14 15 15 16 16 17 17 18 19 19 19 20 20 21 22 22 23 24 24 24 24 24 25 25 25 25 25 25 25 25 26 26 26 25 25 25 24 24 24 25 25 25 27 29 29 28 27 27 27 26 25 23 22 21 21 21 21 20 20 19 18 17 17 16 15 14 15 15 14 13 13
10 10 11 11 11 12 12 13 13 13 14 14 14 14 14 15 16 16 17 18 18 19 19 19 20 20 21 21 22 23 23 24 24 25 25 26 26 26 26 26 26 26 26 26 26 26 26 26 26 25 25 24 24 25 26 26 27 28 29 29 28 28 27 27 25 24 23 22 21 21 21 21 20 20 19 18 18 17 16 15 15 15 15 14 13
11 11 12 12 13 13 13 13 14 14 14 14 14 14 15 15 16 17 18 18 19 19 19 19 20 21 21 21 22 23 23 24 25 25 26 26 26 27 27 27 27 27 27 27 26 26 26 26 25 25 25 25 25 25 26 27 27 27 29 30 30 29 28 27 26 25 24 23 22 21 21 21 20 20 19 19 18 18 18 17 16 15 15 15 13
12 12 12 12 13 14 14 14 14 14 14 14 14 15 15 16 17 17 18 19 19 20 20 20 21 21 21 21 22 23 23 23 24 25 25 25 26 26 27 28 28 28 27 27 26 26 26 26 25 25 25 25 25 26 26 27 27 27 28 30 31 31 29 28 27 26 25 24 23 22 22 22 21 20 20 20 19 19 18 18 17 16 15 15 14
12 13 13 13 13 13 14 13 13 14 14 14 15 15 15 16 16 17 18 19 19 20 20 21 21 21 21 21 22 22 22 23 23 23 24 24 25 25 26 27 27 27 27 27 26 26 25 25 25 25 25 25 25 26 26 27 27 26 27 30 32 32 31 29 27 27 26 25 25 24 23 22 22 21 21 21 20 19 19 18 18 16 16 15 14
13 13 13 13 13 13 13 13 13 13 14 14 15 15 15 15 16 16 17 18 18 19 19 20 20 20 20 21 21 21 22 22 22 23 23 23 23 24 25 26 26 27 27 27 26 26 25 25 25 25 25 25 26 26 27 27 27 26 26 28 31 32 31 29 28 27 26 25 25 25 24 23 22 22 22 21 21 20 19 19 18 17 16 15 15
13 13 13 12 12 12 12 12 13 13 13 14 14 14 14 15 15 15 15 16 17 17 18 18 19 19 20 20 21 21 22 21 21 22 22 22 22 23 23 24 24 25 26 26 26 25 25 24 24 24 25 25 26 26 26 26 27 26 25 26 29 31 30 29 28 28 27 26 26 26 25 24 23 23 22 22 21 20 20 20 19 18 17 17 16
13 12 12 12 12 12 12 12 12 13 13 13 14 14 14 14 14 14 15 15 16 16 16 17 17 18 19 20 20 20 20 21 21 21 22 22 22 22 22 21 21 23 24 24 24 24 24 24 24 23 24 24 25 25 25 26 26 26 25 25 28 29 29 28 28 27 27 26 26 26 26 25 23 23 22 22 22 21 21 20 20 19 18 18 17
12 12 13 12 12 12 12 12 13 13 13 13 13 14 14 14 14 14 15 15 16 16 16 17 17 18 19 19 19 19 20 20 21 21 22 22 22 22 22 21 20 20 21 22 23 23 23 24 23 23 23 23 24 25 25 26 26 26 25 26 27 28 28 27 27 27 27 27 27 27 26 26 24 23 23 23 22 22 21 20 20 19 19 18 17
12 13 13 13 13 12 12 13 13 13 13 13 13 13 14 14 14 15 15 15 16 16 16 17 17 18 18 19 19 19 19 20 20 21 21 22 22 22 21 20 20 19 20 21 22 22 23 23 23 22 22 23 23 23 24 25 26 26 26 26 27 27 28 27 28 28 27 27 27 27 27 26 26 25 24 23 24 23 22 21 20 20 20 19 18
12 13 13 13 13 12 12 13 13 13 13 13 13 13 14 14 14 15 15 15 15 15 16 16 17 17 18 18 18 19 19 20 20 21 21 21 22 21 21 20 20 19 19 20 21 21 22 23 23 22 22 22 22 22 22 24 25 25 26 27 27 28 28 28 28 28 28 28 28 27 27 26 26 26 25 25 25 24 22 21 21 20 20 20 19
12 12 12 12 12 12 12 13 13 13 13 13 13 13 14 14 14 14 15 15 15 15 15 16 17 18 18 18 18 18 19 19 20 20 21 21 22 22 21 21 20 20 19 20 21 21 21 22 22 22 22 22 22 22 22 23 24 24 26 27 28 28 28 28 28 29 29 29 29 28 27 27 27 27 26 26 25 24 23 22 21 21 21 20 20
11 11 12 12 12 12 12 12 12 13 13 13 13 13 14 14 15 15 15 15 15 15 16 17 17 18 18 18 18 18 19 19 19 20 20 21 21 21 21 21 20 20 19 19 20 21 21 21 22 22 22 22 22 22 22 23 24 25 25 26 28 28 28 28 28 29 29 29 29 29 28 27 27 27 27 26 25 25 24 22 22 21 21 21 20
10 11 11 11 11 11 11 12 12 13 13 13 13 14 14 14 15 15 15 16 16 16 17 17 18 18 18 18 18 18 19 19 20 20 20 21 21 21 21 21 21 20 20 19 19 20 20 21 22 22 22 22 22 23 23 23 24 25 26 26 27 27 28 28 28 29 29 29 29 30 29 29 28 28 28 27 26 25 24 23 22 22 22 21 20
10 10 11 11 10 11 11 12 12 13 13 13 13 14 14 14 15 15 16 16 16 16 17 17 18 18 18 18 18 18 19 19 20 21 21 21 21 21 21 21 21 20 20 19 19 19 20 21 22 22 22 22 22 23 23 24 24 25 26 26 26 26 27 28 28 28 28 29 29 29 29 29 29 28 28 27 26 25 24 23 23 22 22 22 21
10 11 11 11 11 11 11 12 12 13 13 13 14 14 14 15 15 15 16 16 16 16 17 17 18 18 18 19 19 19 19 20 20 21 21 21 22 22 21 21 20 20 20 20 19 19 20 20 21 21 22 22 23 23 23 24 24 25 26 26 26 27 28 28 28 28 29 29 30 30 29 29 29 28 28 27 26 25 24 23 23 23 22 22 22
10 10 10 11 11 11 12 12 13 13 13 13 14 14 15 15 15 15 16 16 16 17 17 18 18 18 19 19 19 19 20 20 20 21 21 21 22 22 21 21 20 20 20 20 20 20 20 20 21 21 22 23 24 24 24 24 25 25 26 26 27 27 28 28 28 28 29 29 29 29 29 28 28 28 27 26 25 24 24 24 24 23 23 23 23
10 10 10 11 11 12 12 13 13 13 14 14 14 15 15 15 15 16 16 16 16 17 17 18 18 18 19 19 19 19 20 20 20 21 21 21 21 21 21 20 20 20 20 20 20 20 20 21 21 21 22 24 25 25 25 25 26 26 26 26 27 28 28 28 29 28 28 29 29 28 27 28 28 27 26 25 24 24 24 24 24 24 24 23 23
10 10 11 11 12 12 13 13 13 14 14 14 15 15 15 16 16 16 16 16 17 17 17 18 18 18 19 19 19 19 19 20 20 20 21 21 21 21 20 20 20 19 19 19 20 20 21 21 21 21 22 24 25 25 25 26 26 26 26 26 27 27 27 28 28 28 28 28 28 28 27 27 27 26 26 25 25 25 25 24 24 25 25 24 24
10 11 11 12 13 13 13 13 14 14 15 15 15 15 16 16 16 16 16 17 17 17 17 17 18 18 19 19 19 19 19 20 20 20 21 21 21 20 20 20 19 19 19 19 19 20 21 21 22 22 22 23 24 25 25 26 27 27 27 26 26 26 27 27 27 27 27 27 28 28 27 27 27 26 26 25 25 25 25 25 25 25 25 25 25
11 11 12 13 13 14 14 14 15 15 15 15 15 15 16 16 16 16 16 17 17 17 17 18 18 18 19 19 19 19 19 20 20 20 20 20 21 20 20 20 19 19 18 18 18 19 20 21 21 22 22 22 23 24 25 26 28 28 27 27 26 26 26 27 27 26 26 26 27 27 26 26 26 26 26 26 26 26 26 26 26 26 26 26 26
12 12 13 14 14 15 15 15 16 16 16 16 16 16 16 16 17 17 17 17 17 17 18 18 18 19 19 19 19 19 20 20 20 21 21 20 20 20 20 20 19 18 18 18 18 18 19 19 20 20 21 21 22 23 24 26 27 28 28 27 27 27 26 26 27 26 26 26 27 27 26 25 25 25 26 26 26 26 26 26 26 26 26 26 27
12 13 13 14 15 15 16 16 16 16 16 16 16 16 16 17 17 17 17 17 18 18 18 18 18 19 19 19 19 19 20 20 20 21 21 20 20 20 20 19 19 18 17 17 17 18 18 19 19 19 19 19 19 21 22 23 25 26 28 28 28 27 27 26 26 26 25 26 26 26 26 25 25 25 26 26 26 25 26 26 26 26 26 26 27
13 13 13 14 15 15 16 16 16 16 16 16 17 17 16 16 17 17 17 17 18 18 18 18 18 19 19 19 19 20 20 20 20 20 20 20 20 20 19 19 18 18 17 17 17 17 18 19 20 20 19 19 19 20 21 23 24 25 27 28 29 28 28 27 27 27 26 26 26 26 26 26 26 26 26 26 26 26 26 26 26 26 26 25 25
13 13 13 13 14 14 15 15 16 16 16 17 17 16 16 16 17 17 17 17 18 18 18 18 18 19 19 20 20 20 20 20 20 20 20 20 20 19 19 19 18 18 17 16 16 17 17 19 19 20 20 20 20 20 22 23 24 25 26 27 29 29 29 29 28 28 27 27 27 27 27 26 26 26 26 26 26 26 26 25 25 25 25 25 25
11 12 12 12 13 13 14 15 15 16 16 16 16 16 15 16 16 16 17 17 17 18 18 18 19 19 20 20 20 20 20 20 20 20 19 20 19 19 18 18 18 17 17 16 16 16 16 18 19 20 20 20 21 21 22 23 24 25 26 27 28 29 29 29 28 28 27 27 27 27 27 27 27 26 26 27 27 26 26 26 25 25 24 24 24
11 11 11 11 12 13 13 14 14 15 15 15 14 14 15 15 15 16 16 16 17 18 18 19 19 19 20 20 19 19 19 19 19 19 19 19 19 18 17 17 16 16 16 16 16 15 16 16 18 19 19 20 21 22 22 23 24 25 26 27 28 28 29 28 27 27 27 27 27 27 27 27 27 26 26 27 27 27 26 26 26 25 24 24 24
11 11 11 11 12 12 12 13 13 13 13 13 13 13 14 14 15 15 16 16 17 17 18 18 19 19 19 19 19 19 19 19 19 19 19 18 18 18 17 17 16 16 15 15 15 15 16 16 17 17 19 20 21 22 22 23 24 25 26 27 27 28 28 28 28 28 28 27 28 28 28 27 27 27 27 28 28 27 26 26 25 25 24 24 23
10 11 11 11 11 11 11 11 12 12 12 12 13 13 13 14 14 15 16 16 17 17 18 18 18 18 18 19 19 19 19 19 19 19 19 18 18 17 17 17 16 16 16 15 15 15 16 16 17 17 18 19 20 21 22 23 24 25 26 27 27 27 28 28 29 29 29 28 28 29 29 28 28 28 28 28 28 27 27 26 26 25 24 24 23
10 10 10 10 10 10 10 10 11 12 12 12 13 13 14 14 15 15 16 17 17 17 17 18 18 18 18 18 19 19 19 19 19 19 18 18 18 18 18 17 17 17 17 17 16 16 16 16 17 17 17 17 18 20 22 23 24 25 26 27 28 28 28 28 28 29 29 29 29 29 29 29 29 28 29 29 28 28 27 27 27 26 25 24 23
9 9 9 9 10 10 10 11 11 12 12 13 13 14 14 15 16 16 17 17 18 18 18 18 18 18 18 18 19 19 19 19 19 19 19 18 18 18 18 18 18 18 18 18 18 17 17 16 16 16 16 16 17 18 20 22 23 24 25 26 27 28 28 28 28 28 28 28 29 29 30 30 29 29 29 28 28 27 26 26 26 25 24 24 23
8 8 9 9 10 10 10 11 11 12 12 13 13 14 15 15 16 16 17 17 18 18 18 18 18 19 19 19 19 19 19 19 19 19 18 18 18 18 18 18 18 18 18 18 18 18 18 17 16 16 15 15 16 16 18 20 22 23 24 25 26 27 28 28 28 28 28 28 28 28 29 29 29 29 29 28 28 27 26 25 25 25 24 24 24
8 8 8 9 9 9 10 10 11 12 12 13 14 14 15 15 16 16 17 17 17 18 18 18 19 19 19 19 19 19 19 19 19 19 18 18 18 18 18 18 18 18 18 18 18 18 18 17 16 16 16 15 15 15 15 17 19 21 22 22 23 25 26 27 27 27 28 28 27 27 28 28 28 29 29 28 28 28 27 26 25 25 25 24 24
6 7 7 8 8 8 9 10 11 12 13 13 14 14 15 16 16 17 17 17 17 18 18 18 19 19 19 19 19 19 19 19 19 19 19 19 19 18 18 18 18 18 18 18 18 18 18 17 17 16 16 16 15 15 14 14 15 17 19 20 21 22 23 24 25 26 26 26 26 26 27 27 27 28 28 28 28 27 27 26 26 26 26 26 26
5 6 7 7 7 8 9 9 10 11 12 13 13 14 15 15 16 16 16 17 17 17 17 18 18 18 19 19 19 19 19 19 19 19 19 19 19 19 19 19 18 18 18 18 18 18 18 17 17 16 16 15 15 15 14 13 13 14 16 18 20 21 22 22 23 24 25 25 25 25 25 26 26 26 26 27 27 27 27 27 26 26 26 26 26
4 5 6 6 6 7 8 9 10 11 12 12 13 14 14 15 15 16 16 16 16 17 17 17 18 18 18 19 19 19 19 19 19 19 19 19 19 19 19 19 19 19 19 18 18 18 17 17 17 16 15 15 14 15 14 14 13 12 13 15 17 19 21 21 22 23 23 24 24 23 23 24 24 24 24 24 25 25 26 26 25 25 25 25 24
3 4 4 5 5 6 8 9 10 11 12 13 13 14 14 15 15 15 16 16 16 16 17 17 17 18 18 18 18 19 19 19 19 19 19 19 19 19 19 19 19 19 19 19 18 18 17 17 17 16 16 15 14 14 14 14 13 13 13 13 14 16 18 20 21 22 23 23 24 23 23 23 23 24 24 24 25 25 25 24 24 23 23 23 23
1 3 4 5 6 7 9 10 11 12 13 13 13 14 15 15 15 15 16 16 16 17 17 17 17 17 17 18 18 18 18 19 19 18 18 18 18 18 18 18 18 18 18 18 18 17 17 17 17 17 17 16 16 15 15 14 14 13 13 14 14 14 16 17 19 20 21 23 23 24 24 24 24 24 24 24 24 24 25 24 24 24 24 24 24
2 3 4 5 6 8 9 11 11 12 12 13 13 14 15 15 15 15 16 16 17 17 17 17 17 17 18 18 18 18 18 18 18 18 18 17 17 17 17 17 18 17 17 17 16 16 16 16 16 17 16 16 16 16 15 15 13 13 13 13 13 13 14 15 16 17 19 20 22 22 23 24 25 25 25 26 26 26 26 26 26 25 25 25 24
2 3 4 5 7 8 10 11 11 11 12 13 13 14 15 15 14 14 15 16 16 16 16 17 17 17 17 18 18 18 18 18 17 18 17 17 17 17 17 17 17 17 17 16 16 15 15 15 15 16 16 16 16 15 15 14 13 12 12 12 12 13 13 14 15 16 17 18 19 20 21 22 23 24 25 25 26 26 25 25 25 25 25 24 24
Wind_Direction
240 251 256 258 261 264 270 275 274 273 278 279 277 275 274 274 271 268 266 266 267 266 262 261 260 260 261 262 265 268 271 271 272 273 272 271 272 272 272 272 271 269 267 266 264 262 258 254 252 249 247 247 246 246 243 238 234 232 230 230 228 228 228 228 230 230 231 233 234 235 235 234 234 232 229 228 228 232 235 235 235 237 240 243 245
241 250 255 258 261 262 268 272 272 272 276 279 279 280 279 275 273 271 269 269 267 266 268 267 265 265 265 266 268 269 270 271 273 274 273 273 272 272 271 271 271 270 268 266 264 263 260 256 253 250 249 249 247 245 243 238 234 231 230 230 229 228 228 228 228 228 230 231 230 232 232 232 232 230 229 229 229 232 233 233 234 234 236 238 239
243 253 259 262 266 269 269 272 275 276 276 277 278 280 280 278 277 276 272 270 267 266 269 268 268 269 270 271 271 271 271 271 272 273 273 274 273 272 271 269 269 269 268 266 264 263 261 258 254 251 251 251 248 246 244 239 234 232 230 230 229 228 228 228 227 228 230 229 228 231 231 229 230 229 229 230 230 231 232 232 232 232 232 231 231
244 253 263 268 272 276 277 277 278 280 279 279 281 281 280 280 281 280 276 273 270 269 270 271 271 272 273 275 275 274 273 272 272 272 272 274 273 272 270 268 266 266 266 266 265 263 262 260 257 254 253 252 249 248 246 239 235 233 232 231 228 226 226 227 228 229 229 227 228 233 231 228 230 228 227 229 229 229 231 231 231 230 228 227 228
246 253 262 267 271 274 277 278 276 280 283 283 282 282 282 283 284 283 279 276 274 272 273 273 273 274 276 277 277 276 275 274 273 272 272 273 273 272 270 268 267 267 266 265 264 263 262 261 259 257 255 253 251 248 246 241 237 234 233 232 229 226 225 226 228 228 228 228 229 233 232 230 231 226 224 228 228 228 230 230 230 229 226 225 228
248 255 260 264 269 272 274 277 277 280 284 284 282 281 282 284 285 285 281 279 277 276 276 276 275 276 277 278 278 276 276 275 274 274 273 273 274 274 272 270 269 268 267 265 264 263 262 261 260 259 256 254 252 250 246 242 239 236 234 234 231 227 226 226 227 227 228 229 230 234 236 233 231 226 223 227 227 227 229 228 228 228 226 226 228
251 257 261 264 269 272 274 277 277 279 283 285 283 283 283 284 285 286 283 281 281 280 279 278 277 277 277 277 278 276 275 275 276 277 276 275 276 275 273 272 270 269 269 266 264 263 262 261 261 259 256 253 254 252 246 241 239 237 236 235 232 229 228 226 227 227 228 230 230 233 235 232 230 227 224 225 225 226 228 227 227 227 227 227 228
256 259 262 266 269 271 274 276 277 280 283 285 285 285 285 285 285 285 285 284 284 284 281 279 279 279 279 279 279 276 274 275 276 278 278 278 277 276 274 273 272 270 269 267 265 264 262 261 260 259 256 253 253 253 246 240 238 237 237 235 232 231 229 227 227 228 228 229 229 230 231 230 230 230 227 227 225 223 225 226 226 226 227 228 230
257 260 264 267 269 272 275 277 280 282 284 287 287 287 286 285 286 285 285 285 285 286 284 282 282 282 283 283 281 278 276 277 278 279 280 280 279 278 276 274 273 273 270 267 265 265 263 261 260 259 257 253 253 253 247 239 237 237 236 235 233 231 228 227 229 229 229 229 228 229 229 228 229 230 229 228 225 222 223 225 223 224 228 230 232
255 260 264 267 269 273 277 280 284 285 286 288 287 286 286 285 286 287 287 287 286 287 286 285 284 283 284 285 283 281 279 279 279 279 280 280 280 280 279 278 276 275 272 267 265 265 264 261 260 259 257 254 252 251 246 239 237 237 237 235 233 230 228 228 230 230 229 229 227 227 227 225 226 228 227 226 226 225 227 226 223 223 227 230 231
253 258 263 268 271 274 280 284 288 290 290 291 289 287 285 285 286 288 289 289 288 287 287 286 286 285 284 284 283 281 281 281 281 280 281 281 280 280 280 280 279 276 273 268 265 264 264 263 261 259 257 255 251 249 246 241 237 236 236 235 232 231 230 230 229 228 229 229 228 228 227 225 225 226 225 225 226 228 230 228 225 225 228 229 230
252 257 262 269 274 278 282 287 289 290 291 292 291 289 287 287 288 290 290 290 288 287 287 287 287 287 286 285 283 282 282 282 282 281 281 281 280 279 280 280 278 277 274 270 265 263 263 264 262 259 257 256 251 247 245 242 238 236 236 235 232 231 231 229 229 228 228 229 229 229 228 226 225 225 225 225 226 228 231 230 228 227 229 231 230
254 260 266 272 278 281 284 287 289 290 293 293 291 289 288 288 289 290 290 290 290 289 288 289 289 288 287 285 283 282 282 282 282 282 281 281 280 279 279 278 276 276 275 272 267 263 263 263 261 258 257 256 252 248 245 242 240 238 236 235 232 230 229 229 229 229 228 229 229 229 228 226 226 225 225 226 226 227 229 229 228 227 229 231 231
257 263 269 275 280 283 285 288 290 292 295 294 292 290 288 288 289 289 289 290 291 291 291 290 290 290 288 287 285 284 284 284 283 283 283 282 281 279 278 277 275 274 273 271 267 263 261 261 260 257 255 255 252 248 245 241 240 240 237 234 231 229 228 229 229 228 228 229 229 229 227 225 226 225 224 226 225 225 227 228 227 228 229 231 231
259 264 270 276 281 284 286 288 290 292 294 294 293 292 291 290 290 289 289 290 291 292 292 291 291 291 290 288 287 286 286 286 285 285 284 284 283 281 280 278 274 272 270 269 266 262 259 259 258 256 255 254 251 249 246 242 240 241 239 234 231 229 228 228 228 228 228 228 228 229 227 225 225 224 224 226 226 226 228 228 228 229 229 231 233
260 263 269 276 281 283 284 286 289 291 293 294 294 294 293 293 292 290 290 290 291 292 292 293 293 293 292 291 289 288 288 287 286 286 286 286 286 284 282 279 274 270 267 266 263 260 258 257 257 255 254 252 251 249 246 243 241 241 240 236 231 227 226 227 228 228 228 228 228 228 227 226 225 224 224 226 227 228 228 229 230 230 229 231 234
261 265 270 277 280 282 283 285 288 290 293 294 295 295 295 295 294 293 293 292 293 294 294 296 296 296 295 294 293 292 290 289 288 288 287 287 288 288 285 281 274 269 265 263 261 258 256 256 256 255 253 250 249 249 246 243 240 239 241 237 229 225 226 227 227 227 227 228 228 227 227 227 225 225 226 226 227 228 228 229 230 230 230 231 234
263 268 274 279 281 283 285 286 290 292 293 294 294 294 293 294 295 297 298 298 298 298 297 298 298 298 298 297 296 295 293 291 289 288 288 288 290 291 291 285 276 268 264 260 259 257 255 254 255 255 253 250 248 248 247 242 237 237 241 236 226 223 225 227 226 226 227 227 227 227 227 227 226 226 226 226 228 229 230 230 230 230 230 231 233
265 269 275 280 283 286 286 287 291 293 293 294 293 293 293 294 296 297 298 299 300 301 301 301 301 299 299 299 298 297 295 294 292 290 289 289 291 293 295 292 282 271 264 259 257 256 254 253 254 255 254 251 248 247 245 239 235 237 240 232 223 222 225 226 225 226 227 226 226 226 227 227 226 226 226 227 228 230 231 231 231 231 231 232 235
266 269 275 280 282 284 285 286 290 293 294 294 293 293 294 294 296 297 298 300 301 302 303 304 303 302 301 301 300 298 296 295 294 293 290 290 290 292 294 294 289 277 266 258 256 255 254 253 253 255 254 251 248 246 241 236 234 237 237 228 222 222 225 226 226 226 226 226 225 225 226 227 226 227 228 228 229 230 231 232 233 232 232 234 237
264 269 273 278 279 281 282 285 289 292 294 296 295 296 296 295 296 298 300 301 302 303 304 304 305 305 305 304 302 300 297 295 295 294 292 290 290 291 291 292 291 283 270 260 256 255 255 254 253 254 254 251 247 243 238 234 234 236 233 226 223 224 225 227 227 227 226 226 225 225 226 226 227 228 230 229 228 228 229 231 233 233 233 235 236
262 267 271 275 277 279 282 286 290 293 296 298 298 298 299 298 299 300 301 302 303 303 305 305 305 306 308 307 305 304 301 298 297 295 293 291 290 291 290 289 288 285 275 265 259 257 256 255 254 254 253 248 243 239 236 234 235 235 230 226 225 226 226 227 228 227 225 225 226 226 227 227 228 229 230 229 227 226 227 230 232 233 234 235 235
261 265 270 273 275 278 282 288 292 294 297 298 299 300 302 302 302 302 304 304 303 303 305 306 305 306 308 308 307 307 305 303 301 298 295 292 290 290 290 287 286 283 277 268 262 259 257 255 255 254 250 245 241 238 237 235 234 233 229 227 227 227 227 228 227 226 226 226 226 227 227 228 228 229 229 228 226 225 227 230 232 232 234 235 235
260 265 269 272 276 280 285 290 293 295 297 298 299 301 303 305 305 304 305 306 304 304 305 306 305 306 307 307 308 308 307 306 304 302 299 295 291 288 288 287 285 281 276 270 264 260 257 255 255 252 248 244 240 238 237 235 234 232 230 228 228 227 228 228 228 227 228 228 227 227 228 228 228 228 227 225 224 225 228 230 231 232 233 234 235
261 266 270 273 278 283 288 292 294 296 297 298 299 301 303 304 305 304 305 305 304 303 304 305 306 307 307 307 308 308 308 307 306 304 303 300 295 290 286 286 285 281 276 270 265 260 257 255 253 251 247 243 240 239 237 235 234 232 231 231 230 228 228 228 228 229 229 228 227 227 228 228 227 226 225 224 224 226 228 230 230 232 233 234 236
261 265 268 271 277 284 290 294 295 296 297 297 298 300 301 302 303 303 303 302 302 302 303 305 306 307 308 308 309 309 309 309 308 307 306 304 300 294 288 285 283 281 276 271 266 261 258 255 253 251 247 243 241 239 237 235 234 233 233 233 231 229 229 229 229 230 229 227 227 228 228 227 226 225 224 224 224 226 228 229 231 232 233 234 235
259 263 265 269 276 284 291 294 296 297 297 296 297 298 300 301 302 302 302 301 300 301 303 305 306 307 308 308 309 309 310 310 309 308 307 307 304 299 293 287 283 280 276 271 267 262 259 256 254 252 248 244 242 239 237 235 234 234 234 233 231 230 230 230 231 231 229 228 228 228 227 225 225 225 224 224 226 227 228 229 230 232 234 235 235
257 260 264 269 276 283 289 293 295 297 297 297 298 299 300 301 302 303 303 302 300 301 303 304 306 308 308 308 309 309 309 310 310 309 308 308 307 303 297 290 283 279 275 271 268 263 259 257 255 253 250 246 243 240 237 236 235 235 235 233 232 231 231 231 232 231 229 229 228 227 226 224 224 224 225 227 228 228 228 230 231 232 234 235 237
254 259 264 269 276 282 287 291 293 295 297 298 298 299 300 301 302 303 304 304 301 301 303 303 305 307 308 308 308 308 309 310 311 312 311 311 310 308 302 295 286 280 276 272 268 265 261 258 256 255 252 248 244 241 238 236 236 235 235 233 232 232 231 231 231 230 229 227 226 225 224 223 223 226 228 230 231 229 229 231 232 232 234 236 239
255 260 265 271 277 282 285 288 291 293 296 297 297 298 298 299 301 303 303 304 303 302 303 304 305 307 308 308 308 308 309 311 312 312 313 314 313 311 307 301 292 283 277 273 269 265 262 259 258 257 256 250 245 242 239 237 236 235 234 233 233 232 232 231 231 229 227 225 224 224 224 224 226 229 230 231 231 231 232 233 233 234 235 237 239
257 263 269 273 278 281 285 287 290 292 294 295 296 296 297 298 300 301 302 302 303 303 303 304 305 306 307 309 309 309 310 311 312 313 314 315 314 312 310 307 300 290 281 275 270 266 264 261 259 259 259 253 246 243 239 236 234 233 233 233 233 233 232 232 230 227 225 224 223 225 227 228 229 230 230 231 232 233 234 235 236 236 237 239 239
259 266 272 277 280 282 284 286 288 291 293 294 294 294 296 297 299 300 300 299 300 302 303 304 305 306 307 308 308 309 310 311 312 313 314 315 315 313 311 310 306 298 287 278 273 269 265 263 261 260 259 254 248 243 239 236 234 232 232 232 232 231 231 231 230 228 227 226 227 228 229 229 229 229 231 232 233 234 235 236 237 238 239 240 240
261 267 273 279 281 282 284 285 287 289 292 293 294 294 294 296 297 298 300 299 299 300 301 303 305 306 306 307 307 308 309 310 311 312 313 315 316 315 312 311 309 305 295 285 277 271 267 266 264 262 260 255 249 245 241 239 237 234 231 231 231 231 231 232 231 231 230 229 229 230 229 229 229 229 231 233 234 234 235 236 237 237 239 240 241
261 267 273 278 281 283 285 287 288 290 291 292 293 293 293 294 296 298 300 300 299 299 300 302 304 305 305 305 306 307 307 308 309 310 312 314 317 317 314 311 310 308 302 293 284 275 268 266 266 265 262 257 251 247 245 242 240 237 234 232 232 232 232 232 231 231 231 229 228 228 229 230 230 230 232 233 233 234 234 235 236 237 238 240 241
261 266 272 277 281 284 287 289 290 291 292 293 294 293 293 294 295 297 300 301 300 300 300 301 302 304 304 304 306 306 306 307 308 309 311 312 314 317 316 314 312 310 305 298 290 281 273 268 265 264 262 259 255 252 249 245 241 239 237 235 234 233 233 233 233 232 232 231 230 230 230 230 231 232 233 233 233 233 233 234 235 236 237 239 240
262 268 274 278 282 287 290 291 292 292 293 295 295 294 294 295 296 298 300 301 301 301 301 301 302 303 304 305 305 305 306 307 307 308 310 311 312 314 315 315 314 313 308 301 294 287 280 273 269 265 262 260 258 255 253 248 243 240 239 238 235 234 235 236 236 235 234 234 234 233 231 231 232 233 233 232 232 232 232 233 234 235 237 239 241
265 272 277 280 285 290 292 292 294 295 295 296 296 295 295 297 299 300 301 301 302 303 303 302 302 303 304 305 305 305 305 306 307 307 308 309 309 310 311 313 314 315 314 308 300 292 286 280 275 270 265 261 258 256 254 251 246 242 241 239 237 236 237 237 236 234 233 234 234 234 232 232 233 233 232 231 230 230 231 232 233 235 237 239 241
268 275 278 283 288 292 294 295 296 297 297 297 298 299 299 301 303 303 303 304 305 305 305 304 303 302 303 304 305 305 306 307 307 307 307 306 306 306 307 308 309 312 314 312 304 296 290 286 280 275 270 265 260 256 255 253 249 245 242 240 238 236 236 236 234 233 233 234 235 235 234 234 233 232 231 230 229 229 231 232 233 235 237 239 241
271 275 278 283 288 292 295 298 299 299 299 299 300 303 303 304 305 305 306 307 307 307 307 306 306 305 305 305 305 305 306 308 308 308 307 306 304 304 304 304 305 306 308 309 306 299 294 291 287 281 276 270 264 259 257 255 252 249 244 240 238 237 236 235 234 233 233 234 236 236 235 235 234 232 230 229 228 229 231 232 233 234 236 237 239
272 277 279 282 287 291 294 298 300 301 301 301 302 303 305 306 306 306 306 306 306 307 307 307 308 308 309 309 308 306 306 307 308 308 308 306 305 304 304 303 303 304 304 304 305 302 298 295 293 288 282 275 268 263 260 256 254 251 246 241 239 238 237 237 236 234 233 234 235 236 235 235 234 231 230 228 228 231 234 233 233 234 235 236 237
273 278 281 283 286 289 293 298 302 303 304 304 303 304 305 306 306 306 306 305 305 305 305 306 307 308 309 311 310 309 307 307 307 307 307 306 305 304 304 304 304 304 304 304 303 302 300 298 297 294 290 283 275 268 263 259 255 252 249 244 240 239 239 239 238 236 234 234 235 236 236 235 234 232 230 229 229 232 235 235 235 237 237 236 237
272 276 281 283 286 290 293 298 303 305 307 307 307 307 308 308 309 309 307 306 306 305 305 306 307 307 308 309 310 309 307 305 305 306 306 305 305 304 304 304 304 305 306 306 305 303 300 299 298 298 295 290 283 276 268 262 258 255 251 246 241 240 240 240 238 236 235 236 237 238 237 235 233 232 230 229 229 231 234 235 236 237 236 236 238
267 275 282 285 287 290 294 298 301 305 307 308 309 310 310 310 311 311 309 309 308 307 306 307 308 308 308 309 310 310 309 306 305 304 304 304 304 304 303 303 304 304 305 307 307 306 304 301 299 299 299 295 289 282 273 265 260 257 253 248 245 242 241 239 238 237 237 237 237 237 235 233 232 231 230 229 229 231 233 235 236 236 235 237 238
269 279 287 290 292 293 295 299 302 305 307 309 310 312 312 312 313 311 311 311 310 309 308 307 308 309 309 308 309 310 310 308 306 305 304 304 305 304 304 303 302 302 303 304 304 305 307 306 302 299 299 299 296 291 281 271 263 256 250 248 247 245 241 238 236 237 237 236 235 234 233 232 231 230 230 230 231 232 233 235 236 236 236 238 239
275 285 290 294 298 299 300 303 306 308 309 310 311 313 314 314 313 312 312 312 312 311 310 309 308 309 309 309 308 308 309 310 308 306 304 304 304 305 305 304 302 302 301 301 301 301 304 306 305 302 299 298 297 296 291 282 270 258 249 246 246 245 242 237 234 234 234 233 232 231 232 231 230 230 230 230 231 232 232 233 235 236 237 239 240
280 289 295 300 304 306 307 310 311 312 313 313 313 315 315 314 314 314 314 314 313 313 312 311 310 309 309 310 309 307 307 308 308 307 306 304 303 304 305 305 304 303 301 300 299 299 299 301 304 303 300 297 295 295 293 289 279 265 254 247 244 243 241 236 232 231 231 230 229 230 230 230 229 230 230 229 230 231 231 232 234 236 238 240 241
286 295 301 307 312 315 317 319 319 318 317 317 316 317 316 315 314 314 314 315 315 315 314 313 313 311 310 310 310 308 306 305 305 305 306 305 303 302 303 305 304 304 302 300 298 297 295 296 298 300 299 298 295 292 290 289 283 272 260 251 245 242 240 237 234 233 232 230 229 229 229 229 228 227 227 227 228 229 229 231 233 235 237 240 241
297 308 314 320 326 329 328 326 324 321 320 319 319 319 319 319 317 316 317 318 318 318 318 317 316 314 312 311 311 310 308 306 304 302 303 304 303 301 301 302 303 302 302 301 298 296 293 292 292 295 297 297 297 294 290 286 280 271 262 255 249 245 241 238 236 236 234 232 230 229 228 228 227 227 226 227 227 228 229 230 232 234 236 240 243
334 335 336 335 336 335 332 330 327 325 324 323 323 323 323 322 321 321 322 323 322 321 322 322 321 320 318 316 314 313 311 309 307 304 301 301 302 302 301 299 299 299 299 299 298 296 294 290 288 289 292 293 294 294 291 286 280 273 266 260 255 251 247 241 238 237 235 233 233 232 231 231 230 228 228 228 229 230 230 231 234 237 241 244 246
355 349 349 347 344 341 338 336 334 332 331 330 328 328 327 326 325 324 325 325 325 324 323 323 323 323 322 320 319 318 316 314 312 309 305 301 300 302 303 301 298 295 295 296 296 294 294 291 288 286 287 288 288 288 288 286 283 279 273 266 260 257 254 248 244 241 237 235 235 234 233 232 231 231 230 231 233 234 234 235 238 242 244 246 247
4 0 1 358 354 351 348 347 346 344 342 341 338 336 335 333 332 331 331 331 330 329 328 326 325 324 323 322 321 320 319 318 316 314 312 307 303 301 301 301 299 296 292 291 291 291 291 291 289 286 285 285 285 284 283 283 281 280 278 273 267 263 259 254 250 245 240 237 237 235 233 232 232 232 232 233 234 235 236 238 240 242 243 243 245